Location: Mt. Graham
(32.7020°N, 109.8880°W)
Time: 04:08:50
(UTC-07:00)

Amateur Radio Satellites - All Passes

Search period start: 20 September 2017 03:38
Search period end: 21 September 2017 03:38
Location: Mt. Graham, 32.7020°N, 109.8880°W

Satellite Date Start Highest point End Downlink Frequencies (MHz)
Time Altitude Azimuth
nSIGHT-1 20 Sep 03:43:15 03:44:52 13° 31° (NNE) 03:46:29 .
KKS-1 20 Sep 03:44:37 03:47:38 18° 68° (ENE) 03:50:37 437.445
AO-7 20 Sep 03:55:11 04:03:29 80° 106° (ESE) 04:11:46 .
ITAMSAT 1 20 Sep 03:55:49 04:01:02 82° 104° (ESE) 04:06:13 435.822/435.867
Tancredo 1 20 Sep 04:15:15 04:17:41 30° 229° (SW) 04:20:07 437.200
STARS 20 Sep 04:20:42 04:23:37 18° 68° (ENE) 04:26:31 437.465
ISS 20 Sep 04:31:13 04:34:11 31° 39° (NE) 04:37:09 437.550
CUBESAT XI-V 20 Sep 04:46:05 04:50:07 29° 263° (W) 04:54:11 437.345
BEESAT 2 20 Sep 05:10:56 05:12:16 11° 49° (NE) 05:13:35 435.950
BEESAT 3 20 Sep 05:11:19 05:14:59 36° 58° (ENE) 05:18:35 437.485
CUTE-I 20 Sep 05:18:08 05:19:29 11° 92° (E) 05:20:49 437.470
nSIGHT-1 20 Sep 05:18:16 05:21:27 59° 227° (SW) 05:24:38 .
KKS-1 20 Sep 05:19:59 05:23:54 31° 262° (W) 05:27:50 437.445
RS-15 20 Sep 05:23:45 05:35:53 79° 114° (ESE) 05:48:13 29.354- 29.394
XW-2B 20 Sep 05:27:05 05:28:55 13° 94° (E) 05:30:45 145.730 - 145.750
XW-2F 20 Sep 05:30:17 05:32:14 14° 94° (E) 05:34:11 145.980 - 146.000
DOVE 4 20 Sep 05:45:55 05:50:07 72° 283° (WNW) 05:54:29 437.250
XW-2C 20 Sep 05:47:00 05:50:11 25° 97° (E) 05:53:20 145.795 - 145.815
AO-7 20 Sep 05:49:51 05:55:18 20° 303° (WNW) 06:00:46 .
LilacSat-2 20 Sep 05:54:09 05:57:39 34° 98° (E) 06:01:07 437.200
STARS 20 Sep 05:55:49 05:59:40 31° 262° (W) 06:03:32 437.465
NUDT-PHONESAT 20 Sep 06:05:51 06:09:10 30° 98° (E) 06:12:27 437.300
ISS 20 Sep 06:08:16 06:10:27 17° 233° (SW) 06:12:39 437.550
STRAND 1 20 Sep 06:16:18 06:20:29 27° 69° (ENE) 06:24:42 437.568
AO-85 20 Sep 06:24:18 06:28:51 89° 47° (NE) 06:33:46 145.980
KAITUO 1B 20 Sep 06:27:33 06:31:17 68° 101° (E) 06:34:57 145.475/437.950
CUTE 1.7 + AOD 2 20 Sep 06:28:42 06:31:02 14° 94° (E) 06:33:21 437.475
BEESAT 2 20 Sep 06:46:24 06:50:19 54° 245° (WSW) 06:54:10 435.950
XW-2D 20 Sep 06:47:22 06:50:57 41° 285° (WNW) 06:54:29 145.860 - 145.880
BEESAT 3 20 Sep 06:50:20 06:52:09 13° 252° (WSW) 06:53:56 437.485
CUTE-I 20 Sep 06:54:37 06:59:54 69° 285° (WNW) 07:05:11 437.470
XW-2B 20 Sep 06:59:48 07:03:07 29° 287° (WNW) 07:06:25 145.730 - 145.750
XW-2F 20 Sep 07:03:06 07:06:21 28° 287° (WNW) 07:09:35 145.980 - 146.000
XW-2C 20 Sep 07:21:45 07:24:07 16° 290° (WNW) 07:26:27 145.795 - 145.815
XW-2A 20 Sep 07:22:21 07:25:09 23° 97° (E) 07:27:55 145.665 - 145.685
HO-68 20 Sep 07:25:04 07:32:14 68° 103° (ESE) 07:39:21 435.675
ZACube-1 20 Sep 07:29:04 07:30:53 12° 92° (E) 07:32:42 437.345
AO-73 20 Sep 07:29:44 07:30:25 10° 92° (E) 07:31:07 145.935
LilacSat-2 20 Sep 07:29:59 07:31:33 12° 291° (WNW) 07:33:06 437.200
RS-15 20 Sep 07:39:19 07:49:40 31° 316° (NW) 08:00:06 29.354- 29.394
NUDT-PHONESAT 20 Sep 07:41:01 07:42:41 13° 291° (WNW) 07:44:22 437.300
SEEDS 20 Sep 07:42:25 07:46:36 75° 101° (E) 07:50:43 437.485
CUBEBUG 2 20 Sep 07:50:58 07:55:41 83° 102° (ESE) 08:00:25 437.445
STRAND 1 20 Sep 07:55:14 07:59:31 28° 263° (W) 08:03:51 437.568
CUTE 1.7 + AOD 2 20 Sep 08:03:06 08:06:55 34° 287° (WNW) 08:10:42 437.475
UWE-3 20 Sep 08:06:14 08:10:53 69° 100° (E) 08:15:31 435.000/436.395/437.385
FO-29 20 Sep 08:08:47 08:14:16 38° 72° (ENE) 08:19:16 435.910
AAUSAT CUBESAT 2 20 Sep 08:17:04 08:21:10 83° 99° (E) 08:25:15 437.432
DELFI C3 20 Sep 08:49:20 08:50:04 10° 93° (E) 08:50:47 145.870
XW-2A 20 Sep 08:55:54 08:57:36 13° 290° (WNW) 08:59:17 145.665 - 145.685
AO-73 20 Sep 09:02:26 09:06:54 56° 285° (WNW) 09:11:20 145.935
ZACube-1 20 Sep 09:02:56 09:07:21 49° 285° (WNW) 09:11:43 437.345
Oscar 11 20 Sep 09:06:06 09:10:25 74° 284° (WNW) 09:14:43 .
Max Valier Satellite 20 Sep 09:06:24 09:08:03 13° 94° (E) 09:09:42 145.860
UNISAT 6 20 Sep 09:11:11 09:15:16 46° 74° (ENE) 09:19:27 437.425
HO-68 20 Sep 09:14:25 09:19:14 20° 299° (WNW) 09:24:04 435.675
TIGRISAT 20 Sep 09:35:49 09:40:03 87° 81° (E) 09:44:25 435.000
PRISM 20 Sep 09:43:49 09:47:52 62° 76° (ENE) 09:51:54 437.425
FO-29 20 Sep 09:54:40 09:59:20 23° 263° (W) 10:03:41 435.910
RS-15 20 Sep 10:05:19 10:08:18 11° 350° (N) 10:11:16 29.354- 29.394
EO-88 20 Sep 10:13:58 10:17:37 85° 100° (E) 10:21:14 145.990 - 145.960
DELFI C3 20 Sep 10:21:18 10:24:57 39° 286° (WNW) 10:28:33 145.870
AIST 2D 20 Sep 10:25:07 10:28:11 29° 74° (ENE) 10:31:17 435.315
Max Valier Satellite 20 Sep 10:38:37 10:41:54 30° 287° (WNW) 10:45:10 145.860
DUCHIFAT 1 20 Sep 10:39:48 10:41:55 14° 68° (ENE) 10:44:02 145.980
ESTCUBE 1 20 Sep 10:41:07 10:43:03 13° 93° (E) 10:44:59 437.505/2401.250
POLYITAN 1 20 Sep 10:46:30 10:49:43 22° 70° (ENE) 10:52:58 437.675
YUBILEINY 20 Sep 10:49:00 10:53:53 16° 80° (E) 10:58:45 435.215
UNISAT 6 20 Sep 10:51:07 10:52:13 11° 268° (W) 10:53:20 437.425
EO-79 20 Sep 10:51:40 10:55:06 25° 71° (ENE) 10:58:33 145.935-145.965
QB50P2 20 Sep 11:03:21 11:07:15 39° 73° (ENE) 11:11:11 145.880/145.840
LO-87 20 Sep 11:22:33 11:26:08 72° 102° (ESE) 11:29:42 145.935 - 145.965
BUGSAT 1 20 Sep 11:30:31 11:32:15 13° 68° (ENE) 11:33:59 437.445
NANOSAT C BR1 20 Sep 11:42:24 11:46:34 81° 260° (W) 11:50:45 145.865
M-CUBED/EXP-1 PRIME 20 Sep 11:44:19 11:48:41 57° 71° (ENE) 11:52:49 437.505
O/OREOS (USA 219) 20 Sep 11:47:32 11:50:07 15° 60° (ENE) 11:52:41 437.305
SPROUT 20 Sep 11:53:16 11:56:24 20° 96° (E) 11:59:32 437.525
AIST 2D 20 Sep 12:00:16 12:01:25 11° 267° (W) 12:02:33 435.315
DUCHIFAT 1 20 Sep 12:13:22 12:17:12 37° 262° (W) 12:21:04 145.980
ESTCUBE 1 20 Sep 12:15:45 12:20:01 44° 286° (WNW) 12:24:15 437.505/2401.250
RS-15 20 Sep 12:21:17 12:28:38 18° 29° (NNE) 12:35:46 29.354- 29.394
POLYITAN 1 20 Sep 12:22:02 12:25:21 23° 264° (W) 12:28:41 437.675
EO-79 20 Sep 12:27:44 12:30:46 20° 264° (W) 12:33:50 145.935-145.965
Oscar 19 20 Sep 12:33:32 12:38:17 37° 71° (ENE) 12:43:02 437.125/150
YUBILEINY 20 Sep 12:40:50 12:49:33 80° 276° (W) 12:58:16 435.215
QB50P2 20 Sep 12:41:24 12:43:10 12° 267° (W) 12:44:56 145.880/145.840
DX 1 20 Sep 12:47:05 12:49:15 14° 94° (E) 12:51:25 434.975-435.025
NO-84 20 Sep 12:51:50 12:55:38 45° 128° (SE) 12:59:08 435.350 FM
VELOX 1 20 Sep 13:00:43 13:05:06 85° 283° (WNW) 13:09:28 145.980
AO-7 20 Sep 13:02:21 13:05:43 13° 53° (NE) 13:09:06 .
BUGSAT 1 20 Sep 13:03:31 13:07:13 37° 261° (W) 13:10:57 437.445
M-CUBED/EXP-1 PRIME 20 Sep 13:22:47 13:23:11 10° 261° (W) 13:23:36 437.505
O/OREOS (USA 219) 20 Sep 13:25:21 13:29:42 44° 255° (WSW) 13:34:03 437.305
Gurwin Techsat 1B 20 Sep 13:28:06 13:33:23 88° 79° (E) 13:38:42 435.225
SPROUT 20 Sep 13:28:39 13:32:14 26° 288° (WNW) 13:35:48 437.525
SO-50 20 Sep 13:29:14 13:32:52 25° 111° (ESE) 13:36:30 436.795
50 SAT 20 Sep 13:31:43 13:35:00 78° 102° (ESE) 13:38:16 437.505
Oscar 19 20 Sep 14:13:49 14:17:37 21° 265° (W) 14:21:27 437.125/150
DX 1 20 Sep 14:21:31 14:25:32 39° 287° (WNW) 14:29:32 434.975-435.025
UKube-1 20 Sep 14:21:58 14:26:12 63° 285° (WNW) 14:30:26 .
NO-84 20 Sep 14:30:43 14:33:08 16° 320° (NW) 14:35:26 435.350 FM
RS-15 20 Sep 14:32:35 14:44:21 61° 57° (ENE) 14:55:25 29.354- 29.394
PCSat 20 Sep 14:33:35 14:38:51 58° 112° (ESE) 14:44:10 145.827
YUBILEINY 20 Sep 14:44:43 14:47:39 12° 295° (WNW) 14:50:36 435.215
ITUPSAT 1 20 Sep 14:48:21 14:52:10 23° 96° (E) 14:55:57 437.325
AO-7 20 Sep 14:48:47 14:57:04 73° 70° (ENE) 15:05:21 .
MOZHAYETS 4 20 Sep 14:52:56 14:56:50 26° 97° (E) 15:00:41
ITAMSAT 1 20 Sep 15:09:13 15:14:22 79° 75° (ENE) 15:19:32 435.822/435.867
SO-50 20 Sep 15:09:23 15:13:11 27° 305° (NW) 15:16:59 436.795
BEESAT 20 Sep 15:26:42 15:31:28 66° 102° (ESE) 15:36:11 436.000
PCSat 20 Sep 16:19:08 16:22:36 17° 308° (NW) 16:26:05 145.827
ITUPSAT 1 20 Sep 16:25:47 16:29:54 29° 290° (WNW) 16:33:59 437.325
MOZHAYETS 4 20 Sep 16:30:09 16:33:48 24° 290° (WNW) 16:37:27
CUTE-I 20 Sep 16:35:26 16:37:43 13° 64° (ENE) 16:40:00 437.470
AO-7 20 Sep 16:44:48 16:50:20 19° 265° (W) 16:55:54 .
RS-15 20 Sep 16:46:09 16:55:57 33° 256° (WSW) 17:05:24 29.354- 29.394
CUBESAT XI-V 20 Sep 16:46:17 16:50:54 82° 285° (WNW) 16:55:29 437.345
DOVE 4 20 Sep 16:46:37 16:51:11 66° 77° (ENE) 16:55:30 437.250
KAITUO 1B 20 Sep 17:04:01 17:06:23 16° 70° (ENE) 17:08:45 145.475/437.950
BEESAT 20 Sep 17:07:29 17:08:37 11° 296° (WNW) 17:09:44 436.000
KKS-1 20 Sep 17:14:34 17:18:59 67° 102° (ESE) 17:23:22 437.445
XW-2D 20 Sep 17:23:34 17:27:11 42° 75° (ENE) 17:30:49 145.860 - 145.880
XW-2B 20 Sep 17:35:39 17:39:24 61° 76° (ENE) 17:43:11 145.730 - 145.750
XW-2F 20 Sep 17:38:28 17:42:13 63° 77° (ENE) 17:46:00 145.980 - 146.000
STARS 20 Sep 17:48:46 17:53:07 63° 101° (ESE) 17:57:27 437.465
HO-68 20 Sep 17:49:23 17:55:28 32° 66° (ENE) 18:01:35 435.675
XW-2C 20 Sep 17:56:46 18:00:33 64° 260° (W) 18:04:21 145.795 - 145.815
LilacSat-2 20 Sep 18:05:01 18:08:42 45° 261° (W) 18:12:25 437.200
CUTE-I 20 Sep 18:11:53 18:17:08 66° 258° (WSW) 18:22:25 437.470
NUDT-PHONESAT 20 Sep 18:13:24 18:17:02 54° 260° (W) 18:20:43 437.300
SEEDS 20 Sep 18:29:40 18:33:16 28° 72° (ENE) 18:36:52 437.485
STRAND 1 20 Sep 18:32:39 18:34:53 13° 93° (E) 18:37:08 437.568
KAITUO 1B 20 Sep 18:36:58 18:40:07 25° 263° (W) 18:43:17 145.475/437.950
JUGNU 20 Sep 18:37:34 18:40:23 14° 165° (SSE) 18:43:11 437.505
CUBEBUG 2 20 Sep 18:44:51 18:48:39 36° 73° (ENE) 18:52:34 437.445
CUTE 1.7 + AOD 2 20 Sep 18:50:16 18:54:32 88° 87° (E) 18:58:49 437.475
BEESAT 3 20 Sep 18:57:16 19:00:00 18° 110° (ESE) 19:02:46 437.485
Tancredo 1 20 Sep 18:57:45 19:00:01 25° 130° (SE) 19:02:18 437.200
UWE-3 20 Sep 18:59:04 19:02:43 29° 72° (ENE) 19:06:28 435.000/436.395/437.385
AAUSAT CUBESAT 2 20 Sep 19:02:43 19:06:16 28° 73° (ENE) 19:09:51 437.432
XW-2A 20 Sep 19:20:39 19:24:01 89° 268° (W) 19:27:25 145.665 - 145.685
HO-68 20 Sep 19:36:20 19:42:56 41° 260° (W) 19:49:36 435.675
AO-73 20 Sep 19:52:55 19:57:05 61° 76° (ENE) 20:01:23 145.935
ZACube-1 20 Sep 19:53:39 19:57:51 72° 78° (ENE) 20:02:12 437.345
Oscar 11 20 Sep 19:56:03 20:00:10 45° 74° (ENE) 20:04:19 .
SEEDS 20 Sep 20:05:56 20:08:53 18° 265° (W) 20:11:52 437.485
STRAND 1 20 Sep 20:09:19 20:14:20 57° 286° (WNW) 20:19:21 437.568
nSIGHT-1 20 Sep 20:17:22 20:20:14 31° 130° (SE) 20:23:07 .
CUBEBUG 2 20 Sep 20:23:18 20:25:24 13° 267° (W) 20:27:31 437.445
JUGNU 20 Sep 20:24:22 20:28:45 21° 174° (S) 20:33:06 437.505
BEESAT 2 20 Sep 20:32:43 20:36:39 75° 116° (ESE) 20:40:40 435.950
Tancredo 1 20 Sep 20:32:52 20:34:36 15° 325° (NW) 20:36:19 437.200
BEESAT 3 20 Sep 20:33:51 20:37:19 28° 304° (NW) 20:40:49 437.485
AO-85 20 Sep 20:34:58 20:38:52 88° 129° (SE) 20:42:46 145.980
UWE-3 20 Sep 20:36:23 20:39:10 17° 266° (W) 20:42:01 435.000/436.395/437.385
AAUSAT CUBESAT 2 20 Sep 20:38:56 20:41:42 17° 265° (W) 20:44:28 437.432
EO-88 20 Sep 20:48:01 20:50:28 17° 71° (ENE) 20:52:55 145.990 - 145.960
DELFI C3 20 Sep 21:01:26 21:05:17 55° 76° (ENE) 21:09:09 145.870
FO-29 20 Sep 21:05:44 21:11:05 50° 101° (E) 21:17:01 435.910
NO-84 20 Sep 21:06:36 21:09:11 30° 44° (NE) 21:11:42 435.350 FM
ISS 20 Sep 21:07:28 21:10:41 65° 316° (NW) 21:13:56 437.550
UNISAT 6 20 Sep 21:08:13 21:10:59 15° 94° (E) 21:13:44 437.425
Max Valier Satellite 20 Sep 21:12:12 21:15:47 53° 76° (ENE) 21:19:24 145.860
PRISM 20 Sep 21:31:38 21:33:00 11° 94° (E) 21:34:20 437.425
TIGRISAT 20 Sep 21:31:51 21:35:47 27° 97° (E) 21:39:42 435.000
Oscar 11 20 Sep 21:34:56 21:36:29 12° 267° (W) 21:38:02 .
SRMSAT 20 Sep 21:44:01 21:47:11 15° 166° (SSE) 21:50:22 437.500
nSIGHT-1 20 Sep 21:54:12 21:56:36 19° 325° (NW) 21:58:59 .
LO-87 20 Sep 21:55:38 21:57:26 14° 70° (ENE) 21:59:14 145.935 - 145.965
JUGNU 20 Sep 22:12:43 22:17:09 22° 184° (S) 22:21:33 437.505
EO-88 20 Sep 22:21:06 22:23:55 21° 264° (W) 22:26:46 145.990 - 145.960
UNISAT 6 20 Sep 22:43:24 22:47:45 41° 287° (WNW) 22:52:08 437.425
FO-29 20 Sep 22:52:16 22:55:52 18° 292° (WNW) 22:59:41 435.910
YUBILEINY 20 Sep 22:56:53 23:05:01 42° 77° (ENE) 23:13:07 435.215
PRISM 20 Sep 23:04:37 23:08:23 39° 286° (WNW) 23:12:09 437.425
TIGRISAT 20 Sep 23:08:34 23:12:17 24° 289° (WNW) 23:16:01 435.000
ESTCUBE 1 20 Sep 23:10:04 23:14:35 88° 251° (WSW) 23:19:07 437.505/2401.250
AIST 2D 20 Sep 23:26:49 23:30:20 70° 101° (E) 23:33:47 435.315
PCSat 20 Sep 23:26:53 23:30:43 19° 54° (NE) 23:34:30 145.827
LO-87 20 Sep 23:27:40 23:30:34 24° 263° (W) 23:33:30 145.935 - 145.965
SRMSAT 20 Sep 23:31:16 23:35:42 22° 176° (S) 23:40:09 437.500
NANOSAT C BR1 20 Sep 23:31:38 23:34:56 22° 96° (E) 23:38:14 145.865
SO-50 20 Sep 23:43:44 23:48:19 77° 61° (ENE) 23:52:58 436.795
VELOX 1 20 Sep 23:53:14 23:57:26 46° 74° (ENE) 00:01:37 145.980
50 SAT 20 Sep 23:59:10 00:00:17 11° 69° (ENE) 00:01:25 437.505
DUCHIFAT 1 21 Sep 00:01:15 00:05:19 44° 99° (E) 00:09:22 145.980
JUGNU 21 Sep 00:02:21 00:05:30 15° 194° (SSW) 00:08:40 437.505
POLYITAN 1 21 Sep 00:10:00 00:14:18 78° 102° (ESE) 00:18:34 437.675
EO-79 21 Sep 00:15:14 00:19:30 90° 296° (WNW) 00:23:45 145.935-145.965
SPROUT 21 Sep 00:16:27 00:20:37 63° 259° (W) 00:24:49 437.525
QB50P2 21 Sep 00:27:47 00:31:57 55° 285° (WNW) 00:36:07 145.880/145.840
BUGSAT 1 21 Sep 00:49:05 00:53:01 39° 99° (E) 00:56:58 437.445
Oscar 19 21 Sep 00:50:27 00:54:01 19° 95° (E) 00:57:32 437.125/150
YUBILEINY 21 Sep 00:53:56 01:01:32 35° 274° (W) 01:09:10 435.215
M-CUBED/EXP-1 PRIME 21 Sep 01:01:38 01:04:55 84° 103° (ESE) 01:08:07 437.505
NANOSAT C BR1 21 Sep 01:07:08 01:10:31 24° 289° (WNW) 01:13:54 145.865
PCSat 21 Sep 01:09:08 01:14:21 50° 249° (WSW) 01:19:32 145.827
UKube-1 21 Sep 01:11:32 01:15:44 58° 75° (ENE) 01:19:57 .
DX 1 21 Sep 01:11:52 01:16:11 84° 255° (WSW) 01:20:32 434.975-435.025
SRMSAT 21 Sep 01:19:53 01:24:17 22° 186° (S) 01:28:40 437.500
50 SAT 21 Sep 01:29:42 01:32:29 25° 262° (W) 01:35:17 437.505
VELOX 1 21 Sep 01:32:25 01:34:02 12° 267° (W) 01:35:39 145.980
DUCHIFAT 1 21 Sep 01:38:50 01:40:32 12° 293° (WNW) 01:42:13 145.980
Gurwin Techsat 1B 21 Sep 01:48:58 01:54:08 50° 100° (E) 01:59:15 435.225
MOZHAYETS 4 21 Sep 01:51:24 01:54:07 16° 67° (ENE) 01:56:50
ITUPSAT 1 21 Sep 01:51:29 01:54:31 17° 67° (ENE) 01:57:34 437.325
O/OREOS (USA 219) 21 Sep 01:54:03 01:58:05 35° 104° (ESE) 02:02:10 437.305
BUGSAT 1 21 Sep 02:25:56 02:27:59 13° 292° (WNW) 02:30:03 437.445
BEESAT 21 Sep 02:28:33 02:33:02 44° 73° (ENE) 02:37:33 436.000
Oscar 19 21 Sep 02:28:37 02:33:25 40° 288° (WNW) 02:38:10 437.125/150
Tancredo 1 21 Sep 02:55:18 02:57:49 35° 41° (NE) 03:00:20 437.200
AO-7 21 Sep 02:56:14 03:03:22 31° 99° (E) 03:10:27 .
SRMSAT 21 Sep 03:09:55 03:12:47 14° 195° (SSW) 03:15:40 437.500
MOZHAYETS 4 21 Sep 03:26:34 03:30:52 40° 261° (W) 03:35:13
ITAMSAT 1 21 Sep 03:26:45 03:31:38 40° 99° (E) 03:36:28 435.822/435.867
ITUPSAT 1 21 Sep 03:27:32 03:31:58 40° 261° (W) 03:36:27 437.325
Gurwin Techsat 1B 21 Sep 03:30:20 03:33:36 17° 294° (WNW) 03:36:50 435.225
